BEIDOU IGSO-7

Last updated on July 18, 2019, 4:08 a.m. UTC

1 43539U 18057A   19198.88605475 -.00000102  00000-0  00000+0 0  9999
2 43539  55.0396 185.3297 0023709 202.7519 339.5307  1.00268629  3823
UTC
Height (km)
Latitude
Longitude
Inclination
Orbital Period
UTC large
Height (km)
Speed (km/s)
/
Latitude / Longitude
Inclination (degrees)
Orbital Period (minutes)
Azimuth
Elevation
Range (km)
Doppler Factor
iOS Compass Heading
iOS Angle

Next 30 passes for location: Hong Kong

Rise time Rise Azimuth (degrees) Set time Set Azimuth (degrees) Duration Max altitude (degrees)

No matching passes for this satellites